CZ-2C DEB

Satellite information

Favourite Embed

Satellite Type and Status

DEBRISIN ORBIT

Key statistics

Satellite CZ-2C DEB at a glance.

Uptime

3936

Days in orbit

Revolutions

≈ 14.3

Per day

Orbit

SSO

Sun Synchronous Orbit

Inclination

98.4

Latest

Satellite identification and parameters

Extended collection of information and parameters for CZ-2C DEB.

Object identification

Identified? True

Debris? True

Object name: CZ-2C DEB

International designator: 2014-059F

Object number (NORAD): 40266

Object ID (CCSDS): 40266

Country: PEOPLES REPUBLIC OF CHINA (PRC)

Current information (Y/N): Y

RCS size: SMALL

Orbital parameters

Period: 100.587 minutes

Inclination: 98.3616 deg

SMA: 7164.522 km

Apoapsis: 903.749 km

Periapsis: 669.025 km

RAAN: 103.7081 deg

Eccentricy: 0.016381

Argument of periapsis: 166.5059 deg

Mean anomaly: 194.0585 deg

Mean motion: 14.316009 rev/day

Mean motion (dot): 0.00001275 rev/day2

B* drag term: 0.0004278 1/REarth

Two-line elements (TLE)

Creation date: July 6, 2025, 10:26 p.m.

Reference frame: TEME

Reference center: EARTH

Epoch: July 6, 2025, 6:12 p.m. UTC

TLE line 0: 0 CZ-2C DEB

TLE line 1: 1 40266U 14059F 25187.75839080 .00001275 00000-0 42780-3 0 9999

TLE line 2: 2 40266 98.3616 103.7081 0163810 166.5059 194.0585 14.31600900559267

Live tracking on map

Real-time ground track for satellite CZ-2C DEB.

In-orbit conjunctions

A list of the most updated potential collisions computed for object CZ-2C DEB.

Target Orbit TCA Probability of collision Miss distance Type
COSMOS 1275 DEB LEO 2025-01-29 18:19:40 0.0009430799 37.0 (m) DEBRIS
SL-8 R/B LEO 2024-12-15 21:34:52 0.0001866271 599.0 (m) ROCKET BODY
METEOR M2-3 DEB SSO 2024-09-05 23:08:56 0.0004966353 683.0 (m) DEBRIS

Associated space launch

CZ-2C DEB was lifted into orbit during the mission ‘Long March 2C | Shijian 11-07’, on board a Long March 2 space rocket.

The launch took place on Sept. 28, 2014, 5:13 a.m. from Launch Area 4 (SLS-2 / 603).

For more information about the launch, click the button.

Launch to space Long March 2C | Shijian 11-07
Long March 2C | Shijian 11-07

Agency: N/A

Status: Launch Successful

Launch date: Sept. 28, 2014, 5:13 a.m. UTC

Rocket: Long March 2

Launch pad: Launch Area 4 (SLS-2 / 603)

Location: Jiuquan Satellite Launch Center, People's Republic of China

...

Latest news about this satellite

There are no fresh news available about this satellite. Check back as we update our databases every day.


Newsletter sign-up

Weekly statistics, charts and insights to help you stay on top of the space industry.